Time,TemperatureF,DewpointF,PressureIn,WindDirection,WindDirectionDegrees,WindSpeedMPH,WindSpeedGustMPH,Humidity,HourlyPrecipIn,Conditions,Clouds,dailyrainin,SoftwareType,DateUTC
2013-03-14 00:03:00,34.0,32.0,29.44,West,276,14.8,22.8,30,0.00,,,-99.99,wx200d/1.3,2013-03-14 04:03:00,
2013-03-14 00:08:00,34.0,32.0,29.44,WNW,286,19.5,23.7,30,0.00,,,-99.99,wx200d/1.3,2013-03-14 04:08:00,
2013-03-14 00:13:00,34.0,32.0,29.44,West,262,13.4,19.5,30,0.00,,,-99.99,wx200d/1.3,2013-03-14 04:13:00,
2013-03-14 00:18:00,33.8,32.0,29.44,WNW,295,12.5,15.9,31,0.00,,,-99.99,wx200d/1.3,2013-03-14 04:18:00,
2013-03-14 00:23:00,33.8,32.0,29.44,West,279,10.5,15.4,31,0.00,,,-99.99,wx200d/1.3,2013-03-14 04:23:00,
2013-03-14 00:28:00,33.8,32.0,29.44,West,278,8.3,14.3,31,0.00,,,-99.99,wx200d/1.3,2013-03-14 04:28:00,
2013-03-14 00:33:00,33.8,32.0,29.44,West,270,12.5,15.2,31,0.00,,,-99.99,wx200d/1.3,2013-03-14 04:33:00,
2013-03-14 00:38:00,33.8,32.0,29.44,WNW,295,18.1,23.3,31,0.00,,,-99.99,wx200d/1.3,2013-03-14 04:38:00,
2013-03-14 00:43:00,34.0,32.0,29.44,WNW,290,21.0,25.3,31,0.00,,,-99.99,wx200d/1.3,2013-03-14 04:43:00,
2013-03-14 00:48:00,34.0,32.0,29.41,West,261,19.0,22.8,30,0.00,,,-99.99,wx200d/1.3,2013-03-14 04:48:00,
2013-03-14 00:53:00,34.0,32.0,29.41,WNW,288,17.7,28.4,30,0.00,,,-99.99,wx200d/1.3,2013-03-14 04:53:00,
2013-03-14 00:58:00,34.0,32.0,29.41,NW,309,16.3,25.3,30,0.08,,,-99.99,wx200d/1.3,2013-03-14 04:58:00,
2013-03-14 01:03:00,34.0,32.0,29.44,WNW,299,23.3,30.4,30,0.08,,,-99.99,wx200d/1.3,2013-03-14 05:03:00,
2013-03-14 01:08:00,34.0,32.0,29.44,WNW,291,17.2,28.6,30,0.59,,,-99.99,wx200d/1.3,2013-03-14 05:08:00,
2013-03-14 01:13:00,34.0,32.0,29.44,NW,316,18.6,24.8,30,0.59,,,-99.99,wx200d/1.3,2013-03-14 05:13:00,
2013-03-14 01:18:00,33.8,32.0,29.41,WNW,287,20.6,26.6,30,0.59,,,-99.99,wx200d/1.3,2013-03-14 05:18:00,
2013-03-14 01:23:00,34.0,32.0,29.41,West,260,19.9,25.3,30,0.59,,,-99.99,wx200d/1.3,2013-03-14 05:23:00,
2013-03-14 01:28:00,33.8,32.0,29.41,West,268,16.3,23.7,30,0.59,,,-99.99,wx200d/1.3,2013-03-14 05:28:00,
2013-03-14 01:33:00,33.8,32.0,29.41,WNW,289,19.9,23.7,30,0.59,,,-99.99,wx200d/1.3,2013-03-14 05:33:00,
2013-03-14 01:38:00,33.8,32.0,29.41,NNW,342,12.1,22.4,30,0.59,,,-99.99,wx200d/1.3,2013-03-14 05:38:00,
2013-03-14 01:43:00,33.8,32.0,29.41,NW,310,14.8,20.1,30,0.59,,,-99.99,wx200d/1.3,2013-03-14 05:43:00,
2013-03-14 01:48:00,33.6,32.0,29.44,WSW,257,21.0,29.5,30,0.59,,,-99.99,wx200d/1.3,2013-03-14 05:48:00,
2013-03-14 01:53:00,33.6,32.0,29.44,WNW,301,14.8,29.5,30,39.29,,,-99.99,wx200d/1.3,2013-03-14 05:53:00,
2013-03-14 01:58:00,33.3,32.0,29.44,NW,318,13.4,21.5,31,39.29,,,-99.99,wx200d/1.3,2013-03-14 05:58:00,
2013-03-14 02:03:00,33.1,32.0,29.44,WNW,293,15.2,18.6,31,39.29,,,-99.99,wx200d/1.3,2013-03-14 06:03:00,
2013-03-14 02:08:00,32.9,32.0,29.44,WNW,286,11.6,16.3,31,39.29,,,-99.99,wx200d/1.3,2013-03-14 06:08:00,
2013-03-14 02:13:00,32.7,32.0,29.44,NNW,333,8.7,12.5,32,39.29,,,-99.99,wx200d/1.3,2013-03-14 06:13:00,
2013-03-14 02:18:00,32.5,32.0,29.44,WNW,294,11.2,13.4,32,39.29,,,-99.99,wx200d/1.3,2013-03-14 06:18:00,
2013-03-14 02:23:00,32.5,32.0,29.44,WNW,289,15.2,16.3,33,39.29,,,-99.99,wx200d/1.3,2013-03-14 06:23:00,
2013-03-14 02:28:00,32.2,32.0,29.44,West,262,11.0,15.9,35,39.29,,,-99.99,wx200d/1.3,2013-03-14 06:28:00,
2013-03-14 02:33:00,32.0,32.0,29.44,WNW,293,14.8,20.6,35,39.29,,,-99.99,wx200d/1.3,2013-03-14 06:33:00,
2013-03-14 02:38:00,31.8,32.0,29.44,NW,323,12.5,16.3,36,39.29,,,-99.99,wx200d/1.3,2013-03-14 06:38:00,
2013-03-14 02:43:00,31.6,32.0,29.44,WNW,289,13.4,19.9,35,39.29,,,-99.99,wx200d/1.3,2013-03-14 06:43:00,
2013-03-14 02:48:00,31.6,32.0,29.44,West,275,13.9,22.8,34,39.29,,,-99.99,wx200d/1.3,2013-03-14 06:48:00,
2013-03-14 02:53:00,31.5,32.0,29.44,NW,308,10.1,18.6,34,39.29,,,-99.99,wx200d/1.3,2013-03-14 06:53:00,
2013-03-14 02:58:00,31.5,32.0,29.44,NW,314,11.0,16.3,34,39.29,,,-99.99,wx200d/1.3,2013-03-14 06:58:00,
2013-03-14 03:03:00,31.3,32.0,29.44,West,272,10.5,15.2,35,39.29,,,-99.99,wx200d/1.3,2013-03-14 07:03:00,
2013-03-14 03:08:00,31.1,32.0,29.44,West,276,10.1,17.2,36,39.29,,,-99.99,wx200d/1.3,2013-03-14 07:08:00,
2013-03-14 03:13:00,31.1,32.0,29.44,WNW,295,8.7,13.9,38,39.29,,,-99.99,wx200d/1.3,2013-03-14 07:13:00,
2013-03-14 03:18:00,30.9,32.0,29.44,West,266,9.6,13.9,38,39.29,,,-99.99,wx200d/1.3,2013-03-14 07:18:00,
2013-03-14 03:23:00,30.9,32.0,29.44,WNW,292,8.7,13.4,40,39.29,,,-99.99,wx200d/1.3,2013-03-14 07:23:00,
2013-03-14 03:28:00,30.7,32.0,29.44,West,276,8.7,12.1,40,39.29,,,-99.99,wx200d/1.3,2013-03-14 07:28:00,
2013-03-14 03:33:00,30.7,32.0,29.44,West,275,7.8,10.5,41,39.29,,,-99.99,wx200d/1.3,2013-03-14 07:33:00,
2013-03-14 03:38:00,30.6,32.0,29.44,West,266,9.6,12.5,41,39.29,,,-99.99,wx200d/1.3,2013-03-14 07:38:00,
2013-03-14 03:43:00,30.6,32.0,29.44,WNW,301,8.7,12.1,41,39.29,,,-99.99,wx200d/1.3,2013-03-14 07:43:00,
2013-03-14 03:48:00,30.4,32.0,29.41,WNW,283,9.6,12.1,41,39.29,,,-99.99,wx200d/1.3,2013-03-14 07:48:00,
2013-03-14 03:53:00,30.4,32.0,29.41,WNW,285,10.5,14.3,42,39.29,,,-99.99,wx200d/1.3,2013-03-14 07:53:00,
2013-03-14 03:58:00,30.4,32.0,29.41,West,261,8.7,13.0,42,0.00,,,-99.99,wx200d/1.3,2013-03-14 07:58:00,
2013-03-14 04:04:00,30.4,32.0,29.41,West,260,9.2,11.2,42,0.00,,,-99.99,wx200d/1.3,2013-03-14 08:04:00,
2013-03-14 04:09:00,30.2,32.0,29.41,WSW,253,9.2,11.0,42,0.00,,,-99.99,wx200d/1.3,2013-03-14 08:09:00,
2013-03-14 04:14:00,30.0,32.0,29.41,WSW,251,7.4,10.5,43,0.00,,,-99.99,wx200d/1.3,2013-03-14 08:14:00,
2013-03-14 04:19:00,30.0,32.0,29.41,West,281,10.5,12.5,42,0.00,,,-99.99,wx200d/1.3,2013-03-14 08:19:00,
2013-03-14 04:24:00,30.4,32.0,29.41,WSW,251,9.6,14.3,41,0.00,,,-99.99,wx200d/1.3,2013-03-14 08:24:00,
2013-03-14 04:29:00,30.7,32.0,29.41,WSW,251,10.1,12.5,41,0.00,,,-99.99,wx200d/1.3,2013-03-14 08:29:00,
2013-03-14 04:34:00,31.1,32.0,29.41,West,261,12.1,13.9,39,0.00,,,-99.99,wx200d/1.3,2013-03-14 08:34:00,
2013-03-14 04:39:00,31.3,32.0,29.41,WSW,254,11.2,14.3,37,0.00,,,-99.99,wx200d/1.3,2013-03-14 08:39:00,
2013-03-14 04:44:00,31.3,32.0,29.41,WSW,252,13.0,15.2,36,0.00,,,-99.99,wx200d/1.3,2013-03-14 08:44:00,
2013-03-14 04:49:00,31.6,32.0,29.41,West,267,11.0,14.8,36,0.00,,,-99.99,wx200d/1.3,2013-03-14 08:49:00,
2013-03-14 04:54:00,31.8,32.0,29.41,West,268,11.2,16.3,36,0.00,,,-99.99,wx200d/1.3,2013-03-14 08:54:00,
2013-03-14 04:59:00,31.8,32.0,29.41,WSW,255,12.1,19.9,36,0.00,,,-99.99,wx200d/1.3,2013-03-14 08:59:00,
2013-03-14 05:04:00,32.0,32.0,29.41,West,280,11.0,19.5,36,0.00,,,-99.99,wx200d/1.3,2013-03-14 09:04:00,
2013-03-14 05:09:00,32.2,32.0,29.41,West,280,11.6,18.6,35,0.00,,,-99.99,wx200d/1.3,2013-03-14 09:09:00,
2013-03-14 05:14:00,32.2,32.0,29.41,West,274,12.1,17.7,35,0.00,,,-99.99,wx200d/1.3,2013-03-14 09:14:00,
2013-03-14 05:19:00,32.4,32.0,29.41,West,275,10.5,15.4,35,0.00,,,-99.99,wx200d/1.3,2013-03-14 09:19:00,
2013-03-14 05:24:00,32.4,32.0,29.41,WNW,292,12.5,18.6,35,0.00,,,-99.99,wx200d/1.3,2013-03-14 09:24:00,
2013-03-14 05:29:00,32.4,32.0,29.41,West,270,16.8,21.5,35,0.00,,,-99.99,wx200d/1.3,2013-03-14 09:29:00,
2013-03-14 05:34:00,32.2,32.0,29.41,WNW,301,11.2,23.7,36,0.00,,,-99.99,wx200d/1.3,2013-03-14 09:34:00,
2013-03-14 05:39:00,32.4,32.0,29.41,West,275,17.2,26.6,34,0.00,,,-99.99,wx200d/1.3,2013-03-14 09:39:00,
2013-03-14 05:44:00,32.4,32.0,29.41,NW,314,11.2,20.1,36,0.63,,,-99.99,wx200d/1.3,2013-03-14 09:44:00,
2013-03-14 05:49:00,32.0,32.0,29.41,NNW,336,14.8,21.5,39,0.63,,,-99.99,wx200d/1.3,2013-03-14 09:49:00,
2013-03-14 05:54:00,31.8,32.0,29.41,West,277,18.1,23.7,40,0.63,,,-99.99,wx200d/1.3,2013-03-14 09:54:00,
2013-03-14 05:59:00,31.8,32.0,29.41,NW,321,13.0,21.0,40,0.63,,,-99.99,wx200d/1.3,2013-03-14 09:59:00,
2013-03-14 06:04:00,31.8,32.0,29.44,West,268,14.3,22.8,38,0.63,,,-99.99,wx200d/1.3,2013-03-14 10:04:00,
2013-03-14 06:09:00,31.8,32.0,29.44,WNW,292,12.1,20.1,36,0.63,,,-99.99,wx200d/1.3,2013-03-14 10:09:00,
2013-03-14 06:14:00,31.8,32.0,29.44,West,278,14.3,23.3,36,0.63,,,-99.99,wx200d/1.3,2013-03-14 10:14:00,
2013-03-14 06:19:00,31.8,32.0,29.44,WNW,298,12.1,22.8,34,0.63,,,-99.99,wx200d/1.3,2013-03-14 10:19:00,
2013-03-14 06:24:00,32.0,32.0,29.44,WNW,286,12.1,18.1,35,0.63,,,-99.99,wx200d/1.3,2013-03-14 10:24:00,
2013-03-14 06:29:00,32.0,32.0,29.44,West,270,20.1,24.4,34,0.63,,,-99.99,wx200d/1.3,2013-03-14 10:29:00,
2013-03-14 06:34:00,32.0,32.0,29.44,West,267,14.3,22.8,35,0.63,,,-99.99,wx200d/1.3,2013-03-14 10:34:00,
2013-03-14 06:39:00,32.0,32.0,29.44,WNW,287,23.3,28.0,34,0.08,,,-99.99,wx200d/1.3,2013-03-14 10:39:00,
2013-03-14 06:44:00,31.6,32.0,29.44,NW,310,17.2,22.8,36,0.08,,,-99.99,wx200d/1.3,2013-03-14 10:44:00,
2013-03-14 06:49:00,31.5,32.0,29.44,West,266,13.9,16.8,39,0.08,,,-99.99,wx200d/1.3,2013-03-14 10:49:00,
2013-03-14 06:54:00,31.3,32.0,29.44,NNW,329,11.6,21.0,40,0.08,,,-99.99,wx200d/1.3,2013-03-14 10:54:00,
2013-03-14 06:59:00,31.3,32.0,29.44,NW,326,14.8,18.6,40,0.08,,,-99.99,wx200d/1.3,2013-03-14 10:59:00,
2013-03-14 07:04:00,31.5,32.0,29.44,WNW,301,11.6,23.7,40,0.08,,,-99.99,wx200d/1.3,2013-03-14 11:04:00,
2013-03-14 07:09:00,31.5,32.0,29.44,NW,326,11.0,19.9,39,0.08,,,-99.99,wx200d/1.3,2013-03-14 11:09:00,
2013-03-14 07:14:00,31.5,32.0,29.44,NNW,337,6.9,18.1,40,0.08,,,-99.99,wx200d/1.3,2013-03-14 11:14:00,
2013-03-14 07:19:00,31.3,32.0,29.44,NW,315,10.5,13.4,40,0.08,,,-99.99,wx200d/1.3,2013-03-14 11:19:00,
2013-03-14 07:24:00,31.3,32.0,29.44,NNW,329,8.7,14.3,40,0.08,,,-99.99,wx200d/1.3,2013-03-14 11:24:00,
2013-03-14 07:29:00,31.3,32.0,29.44,West,268,13.9,21.0,39,0.08,,,-99.99,wx200d/1.3,2013-03-14 11:29:00,
2013-03-14 07:34:00,31.5,32.0,29.44,WNW,300,13.0,20.6,37,0.08,,,-99.99,wx200d/1.3,2013-03-14 11:34:00,
2013-03-14 07:39:00,31.6,32.0,29.44,WNW,287,15.2,20.1,37,0.08,,,-99.99,wx200d/1.3,2013-03-14 11:39:00,
2013-03-14 07:44:00,31.6,32.0,29.44,WNW,287,14.8,24.4,37,0.08,,,-99.99,wx200d/1.3,2013-03-14 11:44:00,
2013-03-14 07:49:00,31.6,32.0,29.47,West,276,19.0,24.4,36,0.08,,,-99.99,wx200d/1.3,2013-03-14 11:49:00,
2013-03-14 07:54:00,31.6,32.0,29.47,West,281,15.9,21.0,36,0.08,,,-99.99,wx200d/1.3,2013-03-14 11:54:00,
2013-03-14 07:59:00,31.6,32.0,29.47,WNW,292,17.2,23.3,36,0.08,,,-99.99,wx200d/1.3,2013-03-14 11:59:00,
2013-03-14 08:04:00,31.5,32.0,29.47,West,277,19.0,25.3,36,0.08,,,-99.99,wx200d/1.3,2013-03-14 12:04:00,
2013-03-14 08:09:00,31.5,32.0,29.47,WNW,286,15.9,24.4,36,0.08,,,-99.99,wx200d/1.3,2013-03-14 12:09:00,
2013-03-14 08:14:00,31.6,32.0,29.47,West,268,15.2,21.5,36,0.08,,,-99.99,wx200d/1.3,2013-03-14 12:14:00,
2013-03-14 08:20:00,31.6,32.0,29.47,West,280,16.3,20.6,36,0.08,,,-99.99,wx200d/1.3,2013-03-14 12:20:00,
2013-03-14 08:25:00,31.6,32.0,29.47,WNW,290,16.8,23.3,36,0.08,,,-99.99,wx200d/1.3,2013-03-14 12:25:00,
2013-03-14 08:30:00,31.6,32.0,29.47,West,281,15.9,26.2,36,0.08,,,-99.99,wx200d/1.3,2013-03-14 12:30:00,
2013-03-14 08:35:00,31.6,32.0,29.47,West,270,14.3,19.5,36,0.08,,,-99.99,wx200d/1.3,2013-03-14 12:35:00,
2013-03-14 08:40:00,31.8,32.0,29.47,West,279,17.7,21.9,34,0.08,,,-99.99,wx200d/1.3,2013-03-14 12:40:00,
2013-03-14 08:45:00,31.8,32.0,29.47,WNW,288,19.0,25.3,34,21.42,,,-99.99,wx200d/1.3,2013-03-14 12:45:00,
2013-03-14 08:50:00,32.2,32.0,29.47,WNW,301,21.0,25.3,33,21.42,,,-99.99,wx200d/1.3,2013-03-14 12:50:00,
2013-03-14 08:55:00,32.4,32.0,29.47,WSW,258,19.5,25.7,33,21.42,,,-99.99,wx200d/1.3,2013-03-14 12:55:00,
2013-03-14 09:00:00,32.5,32.0,29.47,West,273,16.3,29.1,32,0.39,,,-99.99,wx200d/1.3,2013-03-14 13:00:00,
2013-03-14 09:05:00,32.9,32.0,29.47,NW,306,17.7,25.3,32,0.39,,,-99.99,wx200d/1.3,2013-03-14 13:05:00,
2013-03-14 09:10:00,32.9,32.0,29.47,NNW,332,14.8,26.2,32,0.39,,,-99.99,wx200d/1.3,2013-03-14 13:10:00,
2013-03-14 09:15:00,32.9,32.0,29.47,WNW,294,15.9,21.9,32,0.39,,,-99.99,wx200d/1.3,2013-03-14 13:15:00,
2013-03-14 09:20:00,32.7,32.0,29.47,North,1,13.4,20.6,32,0.39,,,-99.99,wx200d/1.3,2013-03-14 13:20:00,
2013-03-14 09:25:00,33.1,32.0,29.47,NNW,336,10.1,20.6,33,0.39,,,-99.99,wx200d/1.3,2013-03-14 13:25:00,
2013-03-14 09:30:00,33.3,32.0,29.47,NW,307,12.5,16.8,32,0.39,,,-99.99,wx200d/1.3,2013-03-14 13:30:00,
2013-03-14 09:35:00,33.6,32.0,29.47,NNW,328,9.2,19.0,32,0.39,,,-99.99,wx200d/1.3,2013-03-14 13:35:00,
2013-03-14 09:40:00,33.8,32.0,29.47,WNW,288,13.9,19.5,32,0.39,,,-99.99,wx200d/1.3,2013-03-14 13:40:00,
2013-03-14 09:45:00,33.8,32.0,29.47,WNW,296,15.4,23.7,31,0.39,,,-99.99,wx200d/1.3,2013-03-14 13:45:00,
2013-03-14 09:50:00,33.6,32.0,29.47,WNW,290,13.0,18.6,31,0.39,,,-99.99,wx200d/1.3,2013-03-14 13:50:00,
2013-03-14 09:55:00,33.4,32.0,29.47,West,279,17.2,21.0,30,0.08,,,-99.99,wx200d/1.3,2013-03-14 13:55:00,
2013-03-14 10:00:00,33.8,32.0,29.47,WNW,302,15.2,24.4,30,0.08,,,-99.99,wx200d/1.3,2013-03-14 14:00:00,
2013-03-14 10:05:00,34.0,32.0,29.47,NNW,329,16.3,24.4,30,0.55,,,-99.99,wx200d/1.3,2013-03-14 14:05:00,
2013-03-14 10:10:00,34.3,32.0,29.47,WNW,300,16.8,23.7,30,0.55,,,-99.99,wx200d/1.3,2013-03-14 14:10:00,
2013-03-14 10:15:00,33.8,32.0,29.47,WNW,298,21.0,28.4,30,0.55,,,-99.99,wx200d/1.3,2013-03-14 14:15:00,
2013-03-14 10:20:00,34.0,32.0,29.47,West,274,20.6,23.3,30,0.55,,,-99.99,wx200d/1.3,2013-03-14 14:20:00,
2013-03-14 10:25:00,34.2,32.0,29.47,West,279,18.1,25.7,30,0.55,,,-99.99,wx200d/1.3,2013-03-14 14:25:00,
2013-03-14 10:30:00,34.0,32.0,29.47,WNW,282,17.2,26.6,30,0.55,,,-99.99,wx200d/1.3,2013-03-14 14:30:00,
2013-03-14 10:35:00,33.8,32.0,29.47,NNW,327,17.2,30.0,30,39.29,,,-99.99,wx200d/1.3,2013-03-14 14:35:00,
2013-03-14 10:40:00,34.3,32.0,29.47,WNW,294,21.0,28.4,30,0.63,,,-99.99,wx200d/1.3,2013-03-14 14:40:00,
2013-03-14 10:45:00,34.3,32.0,29.47,WNW,293,24.4,32.7,30,0.63,,,-99.99,wx200d/1.3,2013-03-14 14:45:00,
2013-03-14 10:50:00,34.2,32.0,29.47,West,275,22.8,33.1,30,26.54,,,-99.99,wx200d/1.3,2013-03-14 14:50:00,
2013-03-14 10:55:00,34.3,32.0,29.47,NW,317,18.1,26.2,27,1.22,,,-99.99,wx200d/1.3,2013-03-14 14:55:00,
2013-03-14 11:00:00,34.9,32.0,29.47,WNW,299,15.9,24.4,27,1.22,,,-99.99,wx200d/1.3,2013-03-14 15:00:00,
2013-03-14 11:05:00,34.9,32.0,29.47,West,281,19.9,24.2,27,0.51,,,-99.99,wx200d/1.3,2013-03-14 15:05:00,
2013-03-14 11:10:00,34.5,32.0,29.47,WNW,288,21.0,29.1,30,0.51,,,-99.99,wx200d/1.3,2013-03-14 15:10:00,
2013-03-14 11:15:00,35.1,32.0,29.47,WNW,288,21.0,25.3,29,0.51,,,-99.99,wx200d/1.3,2013-03-14 15:15:00,
2013-03-14 11:20:00,35.1,32.0,29.47,WNW,297,18.1,28.0,29,0.51,,,-99.99,wx200d/1.3,2013-03-14 15:20:00,
2013-03-14 11:25:00,35.4,32.0,29.47,West,269,19.9,24.4,27,0.51,,,-99.99,wx200d/1.3,2013-03-14 15:25:00,
2013-03-14 11:30:00,35.6,32.0,29.47,NW,321,18.1,26.6,29,0.16,,,-99.99,wx200d/1.3,2013-03-14 15:30:00,
2013-03-14 11:35:00,35.6,32.0,29.47,WNW,293,20.1,24.2,27,0.16,,,-99.99,wx200d/1.3,2013-03-14 15:35:00,
2013-03-14 11:40:00,35.6,32.0,29.47,WNW,292,16.8,26.6,27,0.16,,,-99.99,wx200d/1.3,2013-03-14 15:40:00,
2013-03-14 11:45:00,35.8,32.0,29.47,NNW,344,15.2,22.4,27,0.16,,,-99.99,wx200d/1.3,2013-03-14 15:45:00,
2013-03-14 11:50:00,36.0,32.0,29.47,WNW,282,17.7,22.4,27,0.16,,,-99.99,wx200d/1.3,2013-03-14 15:50:00,
2013-03-14 11:55:00,35.4,32.0,29.47,West,280,24.4,28.0,27,0.16,,,-99.99,wx200d/1.3,2013-03-14 15:55:00,
2013-03-14 12:00:00,35.4,32.0,29.44,WSW,250,22.4,28.4,27,0.16,,,-99.99,wx200d/1.3,2013-03-14 16:00:00,
2013-03-14 12:05:00,35.8,32.0,29.44,WNW,299,13.9,27.1,27,2.20,,,-99.99,wx200d/1.3,2013-03-14 16:05:00,
2013-03-14 12:10:00,36.3,32.0,29.44,WNW,296,24.8,29.5,27,2.20,,,-99.99,wx200d/1.3,2013-03-14 16:10:00,
2013-03-14 12:15:00,36.0,32.0,29.44,WSW,252,21.9,27.5,27,0.47,,,-99.99,wx200d/1.3,2013-03-14 16:15:00,
2013-03-14 12:20:00,36.3,32.0,29.44,WNW,284,18.6,23.3,27,0.47,,,-99.99,wx200d/1.3,2013-03-14 16:20:00,
2013-03-14 12:25:00,36.3,32.0,29.44,West,264,19.9,25.3,27,0.47,,,-99.99,wx200d/1.3,2013-03-14 16:25:00,
2013-03-14 12:30:00,36.1,32.0,29.44,West,264,20.1,28.6,27,0.20,,,-99.99,wx200d/1.3,2013-03-14 16:30:00,
2013-03-14 12:35:00,36.1,32.0,29.44,NW,309,17.2,28.4,27,0.20,,,-99.99,wx200d/1.3,2013-03-14 16:35:00,
2013-03-14 12:40:00,37.0,32.0,29.44,NW,308,7.8,21.5,26,0.20,,,-99.99,wx200d/1.3,2013-03-14 16:40:00,
2013-03-14 12:45:00,36.7,32.0,29.44,WNW,297,21.0,25.7,26,0.20,,,-99.99,wx200d/1.3,2013-03-14 16:45:00,
2013-03-14 12:50:00,36.3,32.0,29.44,WNW,296,18.1,27.5,27,0.20,,,-99.99,wx200d/1.3,2013-03-14 16:50:00,
2013-03-14 12:55:00,37.0,32.0,29.44,WNW,292,17.2,26.2,26,39.29,,,-99.99,wx200d/1.3,2013-03-14 16:55:00,
2013-03-14 13:00:00,37.0,32.0,29.44,WNW,294,19.0,24.8,26,39.29,,,-99.99,wx200d/1.3,2013-03-14 17:00:00,
2013-03-14 13:06:00,37.2,32.0,29.44,West,276,16.8,27.5,26,39.29,,,-99.99,wx200d/1.3,2013-03-14 17:06:00,
2013-03-14 13:11:00,37.2,32.0,29.44,West,281,21.9,28.4,26,0.39,,,-99.99,wx200d/1.3,2013-03-14 17:11:00,
2013-03-14 13:16:00,36.9,32.0,29.44,WNW,284,24.2,30.0,26,0.55,,,-99.99,wx200d/1.3,2013-03-14 17:16:00,
2013-03-14 13:21:00,37.2,32.0,29.44,North,351,19.0,31.3,24,5.79,,,-99.99,wx200d/1.3,2013-03-14 17:21:00,
2013-03-14 13:26:00,37.6,32.0,29.44,WNW,298,19.5,28.0,26,1.89,,,-99.99,wx200d/1.3,2013-03-14 17:26:00,
2013-03-14 13:31:00,38.1,32.0,29.44,West,276,21.9,25.3,26,1.89,,,-99.99,wx200d/1.3,2013-03-14 17:31:00,
2013-03-14 13:36:00,37.6,32.0,29.44,WNW,292,22.8,28.4,26,1.89,,,-99.99,wx200d/1.3,2013-03-14 17:36:00,
2013-03-14 13:41:00,38.5,32.0,29.44,WNW,284,22.8,27.1,26,1.89,,,-99.99,wx200d/1.3,2013-03-14 17:41:00,
2013-03-14 13:46:00,38.5,32.0,29.44,West,274,21.5,28.4,26,0.24,,,-99.99,wx200d/1.3,2013-03-14 17:46:00,
2013-03-14 13:51:00,38.7,32.0,29.44,NW,304,17.7,31.8,23,39.29,,,-99.99,wx200d/1.3,2013-03-14 17:51:00,
2013-03-14 13:56:00,37.6,32.0,29.44,NW,322,15.4,27.1,24,39.29,,,-99.99,wx200d/1.3,2013-03-14 17:56:00,
2013-03-14 14:01:00,37.4,32.0,29.41,NW,305,17.7,22.8,24,0.43,,,-99.99,wx200d/1.3,2013-03-14 18:01:00,
2013-03-14 14:06:00,38.1,32.0,29.41,NW,323,23.3,29.5,24,0.43,,,-99.99,wx200d/1.3,2013-03-14 18:06:00,
2013-03-14 14:11:00,38.7,32.0,29.41,WNW,302,23.3,27.1,23,39.29,,,-99.99,wx200d/1.3,2013-03-14 18:11:00,
2013-03-14 14:16:00,38.5,32.0,29.41,WNW,291,27.5,31.8,23,0.67,,,-99.99,wx200d/1.3,2013-03-14 18:16:00,
2013-03-14 14:21:00,38.1,32.0,29.41,West,261,24.2,28.6,24,0.43,,,-99.99,wx200d/1.3,2013-03-14 18:21:00,
2013-03-14 14:26:00,38.7,32.0,29.41,WSW,252,22.8,26.6,26,6.69,,,-99.99,wx200d/1.3,2013-03-14 18:26:00,
2013-03-14 14:31:00,38.5,32.0,29.41,WNW,284,23.3,30.0,23,1.14,,,-99.99,wx200d/1.3,2013-03-14 18:31:00,
2013-03-14 14:36:00,38.8,32.0,29.41,WNW,289,19.5,26.6,23,1.14,,,-99.99,wx200d/1.3,2013-03-14 18:36:00,
2013-03-14 14:42:00,38.8,32.0,29.41,West,265,17.7,25.3,23,0.31,,,-99.99,wx200d/1.3,2013-03-14 18:42:00,
2013-03-14 14:47:00,39.2,32.0,29.41,West,277,22.4,28.6,23,0.31,,,-99.99,wx200d/1.3,2013-03-14 18:47:00,
2013-03-14 14:52:00,39.2,32.0,29.41,West,261,18.6,30.4,23,4.41,,,-99.99,wx200d/1.3,2013-03-14 18:52:00,
2013-03-14 14:57:00,38.7,32.0,29.41,West,275,24.8,28.4,23,0.79,,,-99.99,wx200d/1.3,2013-03-14 18:57:00,
2013-03-14 15:02:00,38.7,32.0,29.41,West,271,19.9,30.9,23,0.63,,,-99.99,wx200d/1.3,2013-03-14 19:02:00,
2013-03-14 15:07:00,39.4,32.0,29.41,WNW,287,19.9,28.4,23,0.51,,,-99.99,wx200d/1.3,2013-03-14 19:07:00,
2013-03-14 15:12:00,39.4,32.0,29.41,West,269,20.6,31.8,23,0.51,,,-99.99,wx200d/1.3,2013-03-14 19:12:00,
2013-03-14 15:17:00,39.4,32.0,29.41,West,277,20.6,27.1,23,0.28,,,-99.99,wx200d/1.3,2013-03-14 19:17:00,
2013-03-14 15:22:00,39.9,32.0,29.41,West,271,21.9,28.0,23,0.28,,,-99.99,wx200d/1.3,2013-03-14 19:22:00,
2013-03-14 15:27:00,40.3,32.0,29.41,West,271,16.8,25.7,23,0.28,,,-99.99,wx200d/1.3,2013-03-14 19:27:00,
2013-03-14 15:32:00,39.2,32.0,29.41,West,280,22.4,25.3,23,0.28,,,-99.99,wx200d/1.3,2013-03-14 19:32:00,
2013-03-14 15:37:00,39.4,32.0,29.41,WNW,287,21.9,29.5,23,0.28,,,-99.99,wx200d/1.3,2013-03-14 19:37:00,
2013-03-14 15:42:00,39.0,32.0,29.41,WNW,295,17.2,22.4,23,0.28,,,-99.99,wx200d/1.3,2013-03-14 19:42:00,
2013-03-14 15:47:00,39.6,32.0,29.41,West,273,14.8,25.7,23,0.28,,,-99.99,wx200d/1.3,2013-03-14 19:47:00,
2013-03-14 15:52:00,39.7,32.0,29.41,West,274,24.4,36.0,23,15.24,,,-99.99,wx200d/1.3,2013-03-14 19:52:00,
2013-03-14 15:57:00,39.6,32.0,29.41,WNW,288,16.3,32.2,23,26.42,,,-99.99,wx200d/1.3,2013-03-14 19:57:00,
2013-03-14 16:02:00,40.3,32.0,29.41,West,275,24.2,32.7,23,6.10,,,-99.99,wx200d/1.3,2013-03-14 20:02:00,
2013-03-14 16:07:00,40.5,32.0,29.41,WNW,291,19.5,26.6,23,0.79,,,-99.99,wx200d/1.3,2013-03-14 20:07:00,
2013-03-14 16:12:00,40.6,32.0,29.41,WNW,293,18.6,25.7,23,0.79,,,-99.99,wx200d/1.3,2013-03-14 20:12:00,
2013-03-14 16:17:00,40.1,32.0,29.41,West,266,13.4,24.4,23,0.79,,,-99.99,wx200d/1.3,2013-03-14 20:17:00,
2013-03-14 16:22:00,40.5,32.0,29.41,WNW,292,15.9,25.3,23,0.24,,,-99.99,wx200d/1.3,2013-03-14 20:22:00,
2013-03-14 16:28:00,40.5,32.0,29.41,NW,310,13.4,20.1,23,0.24,,,-99.99,wx200d/1.3,2013-03-14 20:28:00,
2013-03-14 16:33:00,41.2,32.0,29.41,NW,311,19.0,24.8,23,0.24,,,-99.99,wx200d/1.3,2013-03-14 20:33:00,
2013-03-14 16:38:00,40.6,32.0,29.41,NW,309,14.3,23.3,23,0.24,,,-99.99,wx200d/1.3,2013-03-14 20:38:00,
2013-03-14 16:43:00,39.9,32.0,29.41,NW,315,15.4,27.5,23,0.24,,,-99.99,wx200d/1.3,2013-03-14 20:43:00,
2013-03-14 16:48:00,39.9,32.0,29.41,West,280,16.3,24.4,23,0.24,,,-99.99,wx200d/1.3,2013-03-14 20:48:00,
2013-03-14 16:53:00,39.7,32.0,29.41,NW,310,14.8,26.2,23,0.12,,,-99.99,wx200d/1.3,2013-03-14 20:53:00,
2013-03-14 16:58:00,40.3,32.0,29.41,NW,320,18.6,25.7,23,0.12,,,-99.99,wx200d/1.3,2013-03-14 20:58:00,
2013-03-14 17:03:00,40.6,32.0,29.41,NW,307,13.0,20.1,23,0.12,,,-99.99,wx200d/1.3,2013-03-14 21:03:00,
2013-03-14 17:08:00,40.8,32.0,29.41,NNW,339,19.5,25.3,23,0.12,,,-99.99,wx200d/1.3,2013-03-14 21:08:00,
2013-03-14 17:13:00,40.6,32.0,29.41,WNW,286,15.9,24.2,23,0.12,,,-99.99,wx200d/1.3,2013-03-14 21:13:00,
2013-03-14 17:18:00,40.6,32.0,29.41,West,262,17.2,22.4,23,0.12,,,-99.99,wx200d/1.3,2013-03-14 21:18:00,
2013-03-14 17:23:00,40.8,32.0,29.41,WNW,298,17.2,20.6,23,0.12,,,-99.99,wx200d/1.3,2013-03-14 21:23:00,
2013-03-14 17:28:00,40.6,32.0,29.41,WNW,286,17.2,24.4,23,0.12,,,-99.99,wx200d/1.3,2013-03-14 21:28:00,
2013-03-14 17:33:00,40.5,32.0,29.41,West,264,16.8,21.0,23,0.12,,,-99.99,wx200d/1.3,2013-03-14 21:33:00,
2013-03-14 17:38:00,40.5,32.0,29.41,WNW,296,17.2,21.9,23,0.12,,,-99.99,wx200d/1.3,2013-03-14 21:38:00,
2013-03-14 17:43:00,40.5,32.0,29.41,WNW,295,16.3,22.4,23,0.12,,,-99.99,wx200d/1.3,2013-03-14 21:43:00,
2013-03-14 17:48:00,40.3,32.0,29.41,West,281,19.5,25.3,23,0.12,,,-99.99,wx200d/1.3,2013-03-14 21:48:00,
2013-03-14 17:53:00,40.5,32.0,29.41,WSW,246,13.0,24.2,23,0.12,,,-99.99,wx200d/1.3,2013-03-14 21:53:00,
2013-03-14 17:58:00,40.3,32.0,29.41,WNW,287,15.4,24.2,23,0.12,,,-99.99,wx200d/1.3,2013-03-14 21:58:00,
2013-03-14 18:03:00,40.3,32.0,29.41,WNW,303,18.1,23.3,23,0.12,,,-99.99,wx200d/1.3,2013-03-14 22:03:00,
2013-03-14 18:08:00,39.9,32.0,29.41,WNW,286,17.7,26.2,23,0.12,,,-99.99,wx200d/1.3,2013-03-14 22:08:00,
2013-03-14 18:13:00,39.9,32.0,29.41,WSW,256,18.1,23.3,23,0.12,,,-99.99,wx200d/1.3,2013-03-14 22:13:00,
2013-03-14 18:18:00,39.7,32.0,29.41,WNW,290,18.6,22.8,23,0.12,,,-99.99,wx200d/1.3,2013-03-14 22:18:00,
2013-03-14 18:23:00,39.7,32.0,29.41,West,269,16.3,29.5,23,0.04,,,-99.99,wx200d/1.3,2013-03-14 22:23:00,
2013-03-14 18:28:00,39.6,32.0,29.41,WNW,303,18.1,23.3,23,0.04,,,-99.99,wx200d/1.3,2013-03-14 22:28:00,
2013-03-14 18:33:00,39.6,32.0,29.41,WNW,288,13.4,20.6,23,0.04,,,-99.99,wx200d/1.3,2013-03-14 22:33:00,
2013-03-14 18:38:00,39.4,32.0,29.41,West,267,15.9,21.9,23,0.04,,,-99.99,wx200d/1.3,2013-03-14 22:38:00,
2013-03-14 18:43:00,39.2,32.0,29.41,WNW,283,16.8,19.5,23,0.04,,,-99.99,wx200d/1.3,2013-03-14 22:43:00,
2013-03-14 18:48:00,39.2,32.0,29.41,WNW,297,15.4,24.8,23,0.04,,,-99.99,wx200d/1.3,2013-03-14 22:48:00,
2013-03-14 18:53:00,38.8,32.0,29.41,West,268,13.9,23.3,23,0.04,,,-99.99,wx200d/1.3,2013-03-14 22:53:00,
2013-03-14 18:58:00,38.7,32.0,29.41,WNW,288,14.8,18.1,23,0.04,,,-99.99,wx200d/1.3,2013-03-14 22:58:00,
2013-03-14 19:03:00,38.1,32.0,29.41,WNW,293,14.8,19.9,24,0.04,,,-99.99,wx200d/1.3,2013-03-14 23:03:00,
2013-03-14 19:08:00,38.1,32.0,29.41,WSW,247,15.2,19.9,24,0.04,,,-99.99,wx200d/1.3,2013-03-14 23:08:00,
2013-03-14 19:13:00,38.1,32.0,29.41,WNW,294,13.9,20.1,24,0.04,,,-99.99,wx200d/1.3,2013-03-14 23:13:00,
2013-03-14 19:18:00,37.9,32.0,29.41,WNW,290,11.2,18.1,24,0.04,,,-99.99,wx200d/1.3,2013-03-14 23:18:00,
2013-03-14 19:23:00,37.9,32.0,29.41,West,277,14.8,21.0,24,0.04,,,-99.99,wx200d/1.3,2013-03-14 23:23:00,
2013-03-14 19:28:00,37.9,32.0,29.41,WNW,292,16.8,21.0,24,0.04,,,-99.99,wx200d/1.3,2013-03-14 23:28:00,
2013-03-14 19:33:00,37.6,32.0,29.41,West,263,11.2,19.9,24,0.04,,,-99.99,wx200d/1.3,2013-03-14 23:33:00,
2013-03-14 19:38:00,37.4,32.0,29.41,NW,305,15.2,18.6,24,0.04,,,-99.99,wx200d/1.3,2013-03-14 23:38:00,
2013-03-14 19:43:00,37.2,32.0,29.41,WNW,286,13.0,19.0,24,0.04,,,-99.99,wx200d/1.3,2013-03-14 23:43:00,
2013-03-14 19:48:00,37.0,32.0,29.44,WNW,292,13.0,18.1,24,0.04,,,-99.99,wx200d/1.3,2013-03-14 23:48:00,
2013-03-14 19:53:00,37.0,32.0,29.44,West,274,11.2,17.2,24,0.04,,,-99.99,wx200d/1.3,2013-03-14 23:53:00,
2013-03-14 19:58:00,36.9,32.0,29.44,West,266,10.1,13.9,24,0.04,,,-99.99,wx200d/1.3,2013-03-14 23:58:00,
2013-03-14 20:04:00,36.7,32.0,29.44,West,276,11.6,17.2,24,0.04,,,-99.99,wx200d/1.3,2013-03-15 00:04:00,
2013-03-14 20:09:00,36.7,32.0,29.44,WNW,292,12.1,15.9,24,0.04,,,-99.99,wx200d/1.3,2013-03-15 00:09:00,
2013-03-14 20:14:00,36.7,32.0,29.44,West,276,12.5,15.9,24,0.04,,,-99.99,wx200d/1.3,2013-03-15 00:14:00,
2013-03-14 20:19:00,36.7,32.0,29.44,West,277,13.4,17.2,24,0.04,,,-99.99,wx200d/1.3,2013-03-15 00:19:00,
2013-03-14 20:24:00,36.7,32.0,29.44,WNW,283,13.4,17.2,24,0.04,,,-99.99,wx200d/1.3,2013-03-15 00:24:00,
2013-03-14 20:29:00,36.7,32.0,29.44,West,278,13.4,14.8,24,0.00,,,-99.99,wx200d/1.3,2013-03-15 00:29:00,
2013-03-14 20:34:00,36.7,32.0,29.44,West,278,12.1,18.1,24,0.00,,,-99.99,wx200d/1.3,2013-03-15 00:34:00,
2013-03-14 20:39:00,36.3,32.0,29.44,West,278,11.2,15.2,24,0.00,,,-99.99,wx200d/1.3,2013-03-15 00:39:00,
2013-03-14 20:44:00,36.3,32.0,29.44,West,273,13.0,16.8,24,0.00,,,-99.99,wx200d/1.3,2013-03-15 00:44:00,
2013-03-14 20:49:00,36.1,32.0,29.44,West,278,14.3,17.7,24,0.00,,,-99.99,wx200d/1.3,2013-03-15 00:49:00,
2013-03-14 20:54:00,36.1,32.0,29.44,WNW,297,13.0,19.0,24,0.00,,,-99.99,wx200d/1.3,2013-03-15 00:54:00,
2013-03-14 20:59:00,36.1,32.0,29.44,West,281,13.0,15.2,24,0.00,,,-99.99,wx200d/1.3,2013-03-15 00:59:00,
2013-03-14 21:04:00,36.0,32.0,29.44,WSW,258,14.3,18.1,24,0.00,,,-99.99,wx200d/1.3,2013-03-15 01:04:00,
2013-03-14 21:09:00,36.3,32.0,29.44,WNW,291,13.4,19.5,24,0.00,,,-99.99,wx200d/1.3,2013-03-15 01:09:00,
2013-03-14 21:14:00,36.1,32.0,29.44,WNW,292,15.2,18.6,24,0.00,,,-99.99,wx200d/1.3,2013-03-15 01:14:00,
2013-03-14 21:19:00,36.3,32.0,29.44,West,274,13.4,21.9,24,0.00,,,-99.99,wx200d/1.3,2013-03-15 01:19:00,
2013-03-14 21:24:00,36.3,32.0,29.44,West,274,12.5,19.5,24,0.00,,,-99.99,wx200d/1.3,2013-03-15 01:24:00,
2013-03-14 21:29:00,36.0,32.0,29.44,WNW,284,13.0,15.4,24,0.00,,,-99.99,wx200d/1.3,2013-03-15 01:29:00,
2013-03-14 21:34:00,35.6,32.0,29.44,WNW,283,11.6,14.8,24,0.00,,,-99.99,wx200d/1.3,2013-03-15 01:34:00,
2013-03-14 21:39:00,35.4,32.0,29.44,WNW,301,11.2,17.7,24,0.00,,,-99.99,wx200d/1.3,2013-03-15 01:39:00,
2013-03-14 21:44:00,35.6,32.0,29.44,West,274,11.2,16.8,24,0.00,,,-99.99,wx200d/1.3,2013-03-15 01:44:00,
2013-03-14 21:49:00,35.6,32.0,29.44,WNW,288,10.5,14.3,24,0.00,,,-99.99,wx200d/1.3,2013-03-15 01:49:00,
2013-03-14 21:54:00,35.2,32.0,29.44,West,269,7.8,11.2,27,0.00,,,-99.99,wx200d/1.3,2013-03-15 01:54:00,
2013-03-14 21:59:00,34.9,32.0,29.44,WNW,284,8.3,11.2,27,0.00,,,-99.99,wx200d/1.3,2013-03-15 01:59:00,
2013-03-14 22:04:00,34.7,32.0,29.44,West,271,6.9,11.6,27,0.00,,,-99.99,wx200d/1.3,2013-03-15 02:04:00,
2013-03-14 22:09:00,34.7,32.0,29.44,WNW,294,11.0,13.9,27,0.00,,,-99.99,wx200d/1.3,2013-03-15 02:09:00,
2013-03-14 22:14:00,34.7,32.0,29.44,West,272,6.9,10.5,27,0.00,,,-99.99,wx200d/1.3,2013-03-15 02:14:00,
2013-03-14 22:19:00,34.7,32.0,29.47,West,263,8.3,12.1,27,0.00,,,-99.99,wx200d/1.3,2013-03-15 02:19:00,
2013-03-14 22:24:00,34.7,32.0,29.47,West,260,7.8,13.9,27,0.00,,,-99.99,wx200d/1.3,2013-03-15 02:24:00,
2013-03-14 22:29:00,34.3,32.0,29.47,West,267,7.4,11.0,27,0.00,,,-99.99,wx200d/1.3,2013-03-15 02:29:00,
2013-03-14 22:34:00,34.2,32.0,29.47,West,260,5.8,8.3,27,0.00,,,-99.99,wx200d/1.3,2013-03-15 02:34:00,
2013-03-14 22:39:00,34.0,32.0,29.47,WSW,246,5.4,6.9,27,0.00,,,-99.99,wx200d/1.3,2013-03-15 02:39:00,
2013-03-14 22:44:00,33.6,32.0,29.47,WSW,258,6.7,8.7,30,0.00,,,-99.99,wx200d/1.3,2013-03-15 02:44:00,
2013-03-14 22:49:00,33.6,32.0,29.47,West,263,7.4,10.1,30,0.00,,,-99.99,wx200d/1.3,2013-03-15 02:49:00,
2013-03-14 22:54:00,33.8,32.0,29.47,West,262,6.9,9.2,30,0.00,,,-99.99,wx200d/1.3,2013-03-15 02:54:00,
2013-03-14 22:59:00,33.8,32.0,29.47,West,268,7.4,11.0,30,0.00,,,-99.99,wx200d/1.3,2013-03-15 02:59:00,
2013-03-14 23:04:00,33.8,32.0,29.47,WSW,256,5.8,9.6,30,0.00,,,-99.99,wx200d/1.3,2013-03-15 03:04:00,
2013-03-14 23:09:00,33.6,32.0,29.47,West,276,12.1,15.4,30,0.00,,,-99.99,wx200d/1.3,2013-03-15 03:09:00,
2013-03-14 23:15:00,34.0,32.0,29.47,WNW,288,11.2,14.8,30,0.00,,,-99.99,wx200d/1.3,2013-03-15 03:15:00,
2013-03-14 23:20:00,34.2,32.0,29.47,West,275,9.6,14.8,30,0.00,,,-99.99,wx200d/1.3,2013-03-15 03:20:00,
2013-03-14 23:25:00,34.3,32.0,29.47,WNW,288,10.5,14.8,27,0.00,,,-99.99,wx200d/1.3,2013-03-15 03:25:00,
2013-03-14 23:30:00,34.3,32.0,29.47,WNW,290,14.8,18.6,27,0.00,,,-99.99,wx200d/1.3,2013-03-15 03:30:00,
2013-03-14 23:35:00,34.3,32.0,29.47,WNW,286,13.9,16.8,27,0.00,,,-99.99,wx200d/1.3,2013-03-15 03:35:00,
2013-03-14 23:40:00,34.3,32.0,29.47,WNW,302,8.7,17.2,27,0.00,,,-99.99,wx200d/1.3,2013-03-15 03:40:00,
2013-03-14 23:45:00,34.2,32.0,29.47,West,278,14.3,18.6,27,0.00,,,-99.99,wx200d/1.3,2013-03-15 03:45:00,
2013-03-14 23:50:00,34.3,32.0,29.47,West,280,13.9,19.0,27,0.00,,,-99.99,wx200d/1.3,2013-03-15 03:50:00,
2013-03-14 23:55:00,34.2,32.0,29.47,WNW,291,14.8,17.2,27,0.00,,,-99.99,wx200d/1.3,2013-03-15 03:55:00,